Regional Weather Roundup
Issued by NWS

Home | Current Version | Previous Version | Graphics & Text | Print | Product List | Glossary On
Versions: 1 2 3 4 5 6 7 8 9 10 11 12 13 14 15 16 17 18 19 20 21 22 23 24 25 26 27 28 29 30 31 32 33 34 35 36 37 38 39 40 41 42 43 44 45 46 47 48 49 50
000
ASUS43 KMPX 191601
RWRMN
WEATHER ROUNDUP FOR MINNESOTA
NATIONAL WEATHER SERVICE TWIN CITIES/CHANHASSEN MN
1100 AM CDT SUN APR 19 2015


NOTE: "FAIR" INDICATES FEW OR NO CLOUDS BELOW 12,000 FEET WITH NO
SIGNIFICANT WEATHER AND/OR OBSTRUCTIONS TO VISIBILITY. N/A MEANS
CURRENT SKY AND/OR WEATHER CONDITIONS ARE NOT AVAILABLE.

MNZ060>063-068>070-191700-
   Twin Cities Metro

CITY           SKY/WX    TMP DP  RH WIND       PRES   REMARKS
TWIN CITIES    CLOUDY    54  49  83 SE6       29.66F
ST PAUL        CLOUDY    54  48  80 SE13      29.67F
CRYSTAL        CLOUDY    54  48  80 SE8       29.65F
BLAINE         CLOUDY    54  48  82 SE8       29.66F
LAKEVILLE      CLOUDY    55  54  94 S8        29.66F
EDEN PRAIRIE   CLOUDY    55  52  89 SE3       29.65F
SOUTH ST PAUL  CLOUDY    55  48  79 SE6       29.67F
LAKE ELMO      CLOUDY    54  46  76 SE9       29.68F
$$
MNZ001>005-007-008-013>017-022>024-027-028-191700-
   Northwest Minnesota

CITY           SKY/WX    TMP DP  RH WIND       PRES   REMARKS
BEMIDJI        CLOUDY    41  39  93 SE3       29.63F
HALLOCK        LGT RAIN  45  43  93 NW18G24   29.67F
ROSEAU         CLOUDY    45  39  81 CALM      29.65F
WARROAD        DRIZZLE   41  37  87 E5        29.66S
THIEF RVR FALL CLOUDY    45  43  93 S6        29.66F
CROOKSTON      RAIN      45  45 100 NW22      29.68F
FOSSTON        CLOUDY    45  43  93 CALM      29.65S
DETROIT LAKES  CLOUDY    45  45 100 W7        29.66F FOG
MOORHEAD       DRIZZLE   45  41  87 NW28G35   29.70S
PARK RAPIDS    CLOUDY    45  40  82 W5        29.64R
MAHNOMEN       CLOUDY    46  44  92 W9        29.65S
$$
MNZ006-009>011-018-025>026-191700-
   North Central Minnesota

CITY           SKY/WX    TMP DP  RH WIND       PRES   REMARKS
BAUDETTE       CLOUDY    42  39  89 SE9       29.65F
FLAG ISLAND    CLOUDY    39  37  93 E8        29.65F
INTL FALLS     CLOUDY    41  39  93 E7        29.65F FOG
WASKISH        CLOUDY    43  39  87 CALM      29.65F
BIG FORK       CLOUDY    41  39  93 SE3       29.64F
LONGVILLE      DRIZZLE   41  41 100 CALM      29.63S
GRAND RAPIDS   CLOUDY    39  37  93 CALM      29.64F
ORR            CLOUDY    39  37  93 SE3       29.64F FOG
COOK           RAIN      39  39 100 CALM      29.67F
WALKER         CLOUDY    40  38  96 CALM      29.64S FOG
$$
MNZ012-019>021-037-191700-
   Northeast Minnesota

CITY           SKY/WX    TMP DP  RH WIND       PRES   REMARKS
DULUTH         LGT RAIN  40  38  93 S13       29.67F FOG
ELY            RAIN      39  37  93 SE7       29.68F
HIBBING        LGT RAIN  41  39  93 S7        29.65F FOG
EVELETH        RAIN      41  39  93 SE6       29.67F
DULUTH HARBOR  LGT RAIN  37  36  93 NE21      29.72F
TWO HARBORS    DRIZZLE   41  36  81 E6        29.70F
SILVER BAY     LGT RAIN  37  36  93 NE10G16   29.72F
GRAND MARAIS     N/A     38  35  89 NE15G23   29.80F
G MARAIS ARPRT RAIN      36  30  80 E12G20    29.76F
$$
MNZ029>031-032-039>041-046>048-054>057-064-191700-
   West Central Minnesota

CITY           SKY/WX    TMP DP  RH WIND       PRES   REMARKS
FERGUS FALLS   CLOUDY    45  45 100 NW24G30   29.70R
WHEATON        CLOUDY    45  39  81 W18G30    29.75R
MORRIS         CLOUDY    48  45  87 NW25      29.69R
ALEXANDRIA     CLOUDY    49  45  86 NW17G24   29.67R
ELBOW LAKE     CLOUDY    45  45  99 NW22      29.68S FOG
WADENA         CLOUDY    45  45 100 NW9       29.64S
GLENWOOD       PTSUNNY   50  46  87 W17G26    29.67R
APPLETON       LGT RAIN  48  45  87 NW22G31   29.71S
BENSON         CLOUDY    48  45  87 N21G28    29.69S
ORTONVILLE     CLOUDY    48  43  81 NW21G31   29.73R
MADISON        DRIZZLE   48  45  87 NW20G29   29.74R
WILLMAR        FAIR      52  48  87 NW15      29.70R
$$
MNZ033>034-036-042>043-049>051-058-059-191700-
   Central Minnesota

CITY           SKY/WX    TMP DP  RH WIND       PRES   REMARKS
ST CLOUD       CLOUDY    51  51 100 S9        29.62F FOG
SAUK CENTRE    CLOUDY    49  45  86 W15       29.65S
PAYNESVILLE    CLOUDY    47  46  97 SW17      29.66S
AITKIN         CLOUDY    46  43  87 S7        29.61F HAZE
PINE RIVER     DRIZZLE   43  43 100 N3        29.66F
BRAINERD       CLOUDY    47  46  97 S3        29.62S FOG
STAPLES        CLOUDY    45  45 100 NW9       29.64R FOG
LONG PRAIRIE   CLOUDY    46  45  93 W12G17    29.65R
LITTLE FALLS   CLOUDY    50  48  93 S6        29.62S FOG
LITCHFIELD     CLOUDY    52  52 100 W10G20    29.66R
BUFFALO        CLOUDY    54  51  90 S5        29.64F
MAPLE LAKE     CLOUDY    55  54  97 CALM      29.65S FOG
$$
MNZ037-044-045-052-053-191700-
   East Central Minnesota

CITY           SKY/WX    TMP DP  RH WIND       PRES   REMARKS
PRINCETON      CLOUDY    52  48  87 SE7       29.64F FOG
MORA           CLOUDY    45  43  93 SE5       29.67F
CAMBRIDGE      DRIZZLE   50  43  76 SE6       29.63F
RUSH CITY      CLOUDY    48  43  83 SE8       29.66F
MOOSE LAKE     CLOUDY    43  41  93 CALM      29.65F FOG
HINCKLEY       CLOUDY    45  43  93 SE6       29.66F
CLOQUET        CLOUDY    39  37  93 E8        29.67F FOG
MCGREGOR       CLOUDY    43  43 100 SE7       29.64F
$$
MNZ071>073-080-081-089-090-097-098-191700-
   Southwest Minnesota

CITY           SKY/WX    TMP DP  RH WIND       PRES   REMARKS
MONTEVIDEO     CLOUDY    50  50 100 N14G24    29.72R
GRANITE FALLS  CLOUDY    51  48  92 W18G28    29.73R
CANBY          CLOUDY    49  46  86 NW16G24   29.75R
MARSHALL       CLOUDY    50  43  76 NW18G28   29.73R
REDWOOD FALLS  CLOUDY    53  48  83 NW14      29.69R
OLIVIA         CLOUDY    52  46  82 NW14G20   29.69R
PIPESTONE      CLOUDY    50  45  81 N26G33    29.74S
WINDOM         PTSUNNY   54  50  87 NW15      29.70S
WORTHINGTON    CLOUDY    54  46  76 NW17      29.72S
JACKSON        CLOUDY    52  50  93 NW17      29.71R
TRACY          CLOUDY    52  48  86 NW17      29.72S
SLAYTON        CLOUDY    52  47  83 NW21G29   29.73R
$$
MNZ065>067-074>077-082>085-091>093-191700-
   South Central Minnesota

CITY           SKY/WX    TMP DP  RH WIND       PRES   REMARKS
MANKATO        CLOUDY    59  54  82 W10       29.66F
NEW ULM        PTSUNNY   55  54  94 NW17      29.68S
ST JAMES       CLOUDY    57  54  88 W17G23    29.69S
FAIRMONT       CLOUDY    59  48  67 W7        29.68S
GLENCOE        CLOUDY    56  55  95 W10       29.65S FOG
FARIBAULT      CLOUDY    57  55  94 S6        29.67F
OWATONNA       MOSUNNY   61  54  77 S8        29.68S
ALBERT LEA     PTSUNNY   61  57  88 SE5       29.68S
$$
MNZ078>079-086>088-094>096-191700-
   Southeast Minnesota

CITY           SKY/WX    TMP DP  RH WIND       PRES   REMARKS
ROCHESTER      CLOUDY    55  48  77 S13       29.71F
RED WING       CLOUDY    57  45  62 SE9       29.68F
STANTON        CLOUDY    59  53  79 S12       29.66S
DODGE CENTER   PTSUNNY   57  52  82 S12       29.69F
WINONA         CLOUDY    59  43  55 E5        29.72S
AUSTIN         CLOUDY    55  52  88 S6        29.69S
PRESTON        CLOUDY    54  46  76 S3        29.72S
$$
ABBREVIATIONS USED IN REMARKS
   TC - TEMPERATURES IN CELSIUS
  WCI - WIND CHILL INDEX
   HX - HEAT INDEX
  VSB - VISIBILITY
$$


USA.gov is the U.S. government's official web portal to all federal, state and local government web resources and services.